Weather History for Burlington, WI

Change the Weather History Date:

Sunday, February 9, 2014

  Actual Average (KENW) Record (KENW)
Temperature  
Mean Temperature 8 °F -  
Max Temperature 16 °F 29 °F 51 °F (1999)
Min Temperature -1 °F 11 °F -10 °F (1975)
Degree Days  
Heating Degree Days 58    
Moisture  
Dew Point 1 °F    
Average Humidity 79    
Maximum Humidity 92    
Minimum Humidity 60    
Precipitation  
Precipitation 0.00 in - - ()
Sea Level Pressure  
Sea Level Pressure 30.14 in    
Wind  
Wind Speed 5 mph (WNW)    
Max Wind Speed 15 mph    
Max Gust Speed 17 mph    
Visibility 9 miles    
Events Snow    
Averages and records for this station are not official NWS values.
T = Trace of Precipitation, MM = Missing Value Source: NWS Daily Summary

Daily Weather History Graph

Daily Weather History Graph

Search for Another Location

Airport:

Trip Planner

Search our weather history database for the weather conditions in past years. The results will help you decide how hot, cold, wet, or windy it might be!

Date:

Astronomy

Feb. 09, 2014 Rise Set
Actual Time 6:58 AM CST 5:17 PM CST
Civil Twilight 6:28 AM CST 5:46 PM CST
Nautical Twilight 5:55 AM CST 6:19 PM CST
Astronomical Twilight 5:22 AM CST 6:52 PM CST
Moon 12:54 PM CST (2/9) 3:05 AM CST (2/9)
Length of Visible Light 11h 17m
Length of Day
10h 19m
Waxing Gibbous, 77% of the Moon is Illuminated
Feb 9
Waxing Gibbous
Feb 14
Full
Feb 22
Last Quarter
Mar 1
New
Mar 8
First Quarter

Hourly Weather History & Observations

Time (CST) Temp. Windchill Dew Point Humidity Pressure Visibility Wind Dir Wind Speed Gust Speed Precip Events Conditions
12:15 AM 4.8 °F - 2.5 °F 90% 30.11 in 10.0 mi Calm Calm - N/A Snow Light Snow
12:35 AM 4.5 °F - 2.3 °F 91% 30.11 in 10.0 mi Calm Calm - N/A   Mostly Cloudy
12:55 AM 4.1 °F - 2.1 °F 91% 30.10 in 10.0 mi Calm Calm - N/A   Scattered Clouds
1:15 AM 4.3 °F - 2.1 °F 91% 30.09 in 3.0 mi Calm Calm - N/A Snow Light Snow
1:35 AM 7.5 °F 0.8 °F 5.7 °F 92% 30.10 in 7.0 mi WNW 3.5 mph - N/A Snow Light Snow
1:55 AM 6.6 °F -0.3 °F 4.1 °F 89% 30.11 in 10.0 mi WSW 3.5 mph - N/A   Scattered Clouds
2:15 AM 7.7 °F - 5.9 °F 92% 30.10 in 10.0 mi Calm Calm - N/A   Clear
2:35 AM 7.9 °F - 5.9 °F 92% 30.09 in 7.0 mi Calm Calm - N/A   Clear
2:55 AM 5.4 °F - 3.0 °F 90% 30.08 in 10.0 mi Calm Calm - N/A   Clear
3:15 AM 4.5 °F - 2.5 °F 91% 30.09 in 10.0 mi Calm Calm - N/A   Clear
3:35 AM 1.8 °F -5.8 °F -0.9 °F 88% 30.10 in 10.0 mi WSW 3.5 mph - N/A   Clear
3:55 AM 3.6 °F - 1.0 °F 89% 30.10 in 10.0 mi Calm Calm - N/A   Clear
4:15 AM 4.1 °F - 2.1 °F 91% 30.09 in 10.0 mi Calm Calm - N/A   Clear
4:35 AM 0.9 °F - -1.7 °F 89% 30.09 in 10.0 mi Calm Calm - N/A   Clear
4:55 AM 2.3 °F -12.4 °F -0.4 °F 88% 30.10 in 10.0 mi WNW 9.2 mph - N/A   Clear
5:15 AM 1.9 °F -11.8 °F -0.8 °F 88% 30.10 in 10.0 mi WNW 8.1 mph - N/A   Clear
5:35 AM 2.3 °F -11.4 °F -0.0 °F 90% 30.10 in 10.0 mi WNW 8.1 mph - N/A   Clear
5:55 AM 1.0 °F -11.7 °F -1.7 °F 88% 30.09 in 10.0 mi WNW 6.9 mph - N/A Snow Light Snow
6:15 AM 0.5 °F -12.3 °F -1.8 °F 90% 30.10 in 10.0 mi WNW 6.9 mph - N/A   Clear
6:35 AM 0.3 °F -12.6 °F -2.7 °F 87% 30.10 in 10.0 mi WNW 6.9 mph - N/A   Clear
6:55 AM -1.5 °F -13.3 °F -3.6 °F 91% 30.10 in 5.0 mi WNW 5.8 mph - N/A Snow Light Snow
7:15 AM -1.3 °F -11.4 °F -4.4 °F 87% 30.11 in 7.0 mi West 4.6 mph - N/A   Clear
7:35 AM -1.8 °F - -4.9 °F 87% 30.11 in 7.0 mi Calm Calm - N/A   Clear
7:55 AM -1.8 °F - -4.5 °F 88% 30.11 in 5.0 mi Calm Calm - N/A   Clear
8:15 AM -0.0 °F - -2.7 °F 88% 30.12 in 3.0 mi Calm Calm - N/A Snow Light Snow
8:35 AM 4.1 °F -3.2 °F 2.1 °F 91% 30.12 in 7.0 mi WNW 3.5 mph - N/A   Clear
8:55 AM 5.0 °F -5.6 °F 3.0 °F 92% 30.12 in 10.0 mi WNW 5.8 mph - N/A   Clear
9:15 AM 6.1 °F -5.6 °F 4.1 °F 92% 30.12 in 10.0 mi WNW 6.9 mph - N/A   Clear
9:35 AM 6.8 °F -5.9 °F 4.8 °F 92% 30.12 in 10.0 mi WNW 8.1 mph - N/A   Clear
9:55 AM 8.1 °F -3.2 °F 6.3 °F 92% 30.13 in 10.0 mi WNW 6.9 mph - N/A   Clear
10:15 AM 9.3 °F -2.8 °F 7.5 °F 92% 30.13 in 10.0 mi WNW 8.1 mph - N/A   Clear
10:35 AM 10.0 °F -3.7 °F 6.8 °F 87% 30.13 in 10.0 mi WNW 10.4 mph - N/A   Clear
10:55 AM 11.3 °F 1.9 °F 6.1 °F 80% 30.13 in 10.0 mi WNW 5.8 mph - N/A   Clear
11:15 AM 12.7 °F -0.4 °F 5.4 °F 72% 30.13 in 10.0 mi WNW 10.4 mph - N/A   Clear
11:35 AM 13.1 °F 0.9 °F 5.0 °F 70% 30.13 in 10.0 mi NW 9.2 mph - N/A   Clear
11:55 AM 14.0 °F 2.0 °F 4.8 °F 67% 30.12 in 10.0 mi WNW 9.2 mph - N/A   Clear
12:15 PM 14.9 °F 3.1 °F 5.0 °F 65% 30.12 in 10.0 mi WNW 9.2 mph - N/A   Clear
12:35 PM 15.3 °F 2.0 °F 5.5 °F 65% 30.12 in 10.0 mi WNW 11.5 mph 16.1 mph N/A   Clear
12:55 PM 14.9 °F 1.6 °F 5.9 °F 68% 30.11 in 10.0 mi WNW 11.5 mph - N/A   Clear
1:15 PM 15.3 °F 0.2 °F 5.4 °F 65% 30.10 in 10.0 mi WNW 15.0 mph - N/A   Clear
1:35 PM 16.2 °F 1.9 °F 5.7 °F 64% 30.10 in 0.8 mi WNW 13.8 mph 17.3 mph N/A   Haze
1:55 PM 14.9 °F -0.3 °F 5.2 °F 65% 30.10 in 10.0 mi WNW 15.0 mph - N/A   Mostly Cloudy
2:15 PM 16.0 °F 1.7 °F 5.0 °F 62% 30.12 in 3.0 mi WNW 13.8 mph - N/A Snow Light Snow
2:35 PM 16.3 °F 2.7 °F 4.5 °F 60% 30.12 in 10.0 mi West 12.7 mph - N/A Snow Light Snow
2:55 PM 15.6 °F 1.2 °F 5.2 °F 63% 30.13 in 3.0 mi WNW 13.8 mph - N/A Snow Light Snow
3:15 PM 15.8 °F 2.1 °F 4.3 °F 60% 30.14 in 10.0 mi West 12.7 mph - N/A   Scattered Clouds
3:35 PM 14.4 °F -0.4 °F 4.1 °F 64% 30.14 in 10.0 mi WNW 13.8 mph - N/A   Scattered Clouds
3:55 PM 12.7 °F -1.1 °F 3.2 °F 66% 30.15 in 10.0 mi WNW 11.5 mph - N/A   Clear
4:15 PM 13.1 °F 2.8 °F 3.2 °F 65% 30.15 in 10.0 mi WNW 6.9 mph - N/A   Clear
4:35 PM 11.3 °F -0.4 °F 2.5 °F 68% 30.16 in 10.0 mi WNW 8.1 mph - N/A   Clear
4:55 PM 9.5 °F -3.5 °F 1.8 °F 71% 30.16 in 10.0 mi WNW 9.2 mph - N/A   Clear
5:15 PM 10.0 °F 0.4 °F 1.8 °F 69% 30.17 in 10.0 mi WNW 5.8 mph - N/A   Clear
5:35 PM 9.9 °F 3.4 °F 1.9 °F 70% 30.17 in 10.0 mi West 3.5 mph - N/A   Clear
5:55 PM 5.2 °F -3.8 °F -0.9 °F 76% 30.18 in 10.0 mi WSW 4.6 mph - N/A   Clear
6:15 PM 6.6 °F -2.2 °F 0.1 °F 75% 30.19 in 10.0 mi WSW 4.6 mph - N/A   Clear
6:35 PM 1.8 °F -7.8 °F -2.7 °F 81% 30.19 in 10.0 mi WSW 4.6 mph - N/A   Clear
6:55 PM 1.4 °F -8.3 °F -3.5 °F 80% 30.19 in 10.0 mi SW 4.6 mph - N/A   Clear
7:15 PM 0.1 °F -9.7 °F -3.6 °F 84% 30.20 in 10.0 mi WSW 4.6 mph - N/A   Clear
7:35 PM 1.4 °F -11.3 °F -2.4 °F 84% 30.20 in 10.0 mi West 6.9 mph - N/A   Clear
7:55 PM 3.4 °F -7.5 °F -1.5 °F 80% 30.20 in 10.0 mi West 5.8 mph - N/A   Clear
8:15 PM 3.7 °F -5.5 °F -1.8 °F 78% 30.21 in 10.0 mi WSW 4.6 mph - N/A   Clear
8:35 PM 1.8 °F -9.5 °F -2.4 °F 83% 30.22 in 10.0 mi WSW 5.8 mph - N/A   Clear
8:55 PM 1.4 °F -9.9 °F -2.4 °F 84% 30.23 in 10.0 mi West 5.8 mph - N/A   Clear
9:15 PM 0.5 °F -13.6 °F -4.0 °F 81% 30.23 in 10.0 mi WNW 8.1 mph - N/A   Clear
9:35 PM 0.3 °F -15.8 °F -5.1 °F 78% 30.24 in 10.0 mi WNW 10.4 mph - N/A   Clear
9:55 PM 2.1 °F -13.6 °F -4.4 °F 74% 30.24 in 10.0 mi NW 10.4 mph - N/A   Clear
10:15 PM 3.4 °F -12.9 °F -5.1 °F 68% 30.25 in 10.0 mi NW 11.5 mph - N/A   Clear
10:35 PM 2.7 °F -14.5 °F -6.0 °F 67% 30.25 in 10.0 mi NW 12.7 mph - N/A   Clear
10:55 PM 2.1 °F -16.0 °F -6.7 °F 67% 30.26 in 10.0 mi NW 13.8 mph - N/A   Clear
11:15 PM 0.9 °F -16.8 °F -7.6 °F 68% 30.26 in 10.0 mi NW 12.7 mph - N/A   Clear
11:35 PM 1.0 °F -16.6 °F -8.0 °F 66% 30.26 in 10.0 mi WNW 12.7 mph - N/A   Clear
11:55 PM -1.3 °F -18.7 °F -9.0 °F 70% 30.26 in 10.0 mi WNW 11.5 mph - N/A   Clear